Simultaneous Nadir Overpasses (SNOs) Predictions

Prediction of SNOs between METOP-A and TERRA Satellite Orbit:

Table of predicted SNOs for the next 14.0 days since TLE Epoch: 2/8/2015
Index Date (METOP-A) Time (METOP-A) Lat,Lon (METOP-A) SZA (METOP-A ) Date (TERRA) Time (TERRA) Lat,Lon (TERRA) SZA (TERRA ) Distance(km) Time Diff (sec)
1 02/10/2015 05:32:38 -81.32, -35.84 81.93 02/10/2015 05:33:08 -81.32, -35.87 81.92 0.80 30
2 02/10/2015 06:23:18 81.32, 131.97 98.12 02/10/2015 06:22:34 81.32, 131.84 98.09 2.14 44
3 02/13/2015 01:07:01 -81.32, 30.57 82.85 02/13/2015 01:07:28 -81.31, 30.41 82.86 2.67 27
4 02/13/2015 01:57:42 81.32,-162.05 97.15 02/13/2015 01:56:54 81.32,-161.90 97.14 2.50 48
5 02/15/2015 20:41:25 -81.31, 96.92 83.81 02/15/2015 20:41:51 -81.31, 96.80 83.81 2.00 26
6 02/15/2015 21:32:05 81.32, -95.33 96.23 02/15/2015 21:31:17 81.32, -95.52 96.19 3.18 48
7 02/18/2015 16:15:49 -81.31, 163.22 84.79 02/18/2015 16:16:16 -81.32, 163.31 84.77 1.68 27
8 02/18/2015 17:06:29 81.32, -29.07 95.24 02/18/2015 17:05:42 81.32, -29.02 95.23 0.84 47
9 02/21/2015 11:50:12 -81.31,-130.53 85.80 02/21/2015 11:50:43 -81.31,-130.44 85.78 1.54 31




NCC Satellite Simultaneous Nadir Overpasses (SNOs) Prediction Service
